DW1105 Weather Reports


Display with metric or nautical units.
time (UTC)temp
F
wind
direction
speed
MPH
gust
MPH
rain 1hr
in
rain 24hr
in
rain mn
in
humidity
%
barometer
mb
20260831014326 72 220 0.0 0.0 0.01 0.01 0.01 92 1019.5
20260831013823 72 220 0.0 0.0 0.01 0.01 0.01 92 1019.4
20260831013319 72 220 0.0 0.0 0.01 0.01 0.01 92 1019.4
20260831012815 72 220 0.0 0.0 0.01 0.01 0.01 92 1019.4
20260831012315 72 220 0.0 0.0 0.01 0.01 0.01 92 1019.4
20260831011811 72 220 0.0 0.0 0.00 0.00 0.00 92 1019.3
20260831011323 72 220 0.0 0.0 0.00 0.00 0.00 91 1019.3
20260831010818 72 220 0.0 0.0 0.00 0.00 0.00 91 1019.0
20260831010315 72 220 0.0 0.0 0.00 0.00 0.00 91 1019.0
20260831005829 72 220 0.0 0.0 0.00 0.00 0.00 91 1019.0
20260831005325 73 220 0.0 0.0 0.00 0.00 0.00 91 1018.8
20260831004826 73 220 0.0 0.0 0.00 0.00 0.00 91 1018.8
20260831004320 73 220 0.0 0.0 0.00 0.00 0.00 90 1018.7
20260831003817 73 220 0.0 0.0 0.00 0.00 0.00 90 1018.7
20260831003314 73 220 0.0 0.0 0.00 0.00 0.00 89 1018.6
20260831002829 73 220 0.0 0.0 0.00 0.00 0.00 89 1018.6
20260831002326 73 220 0.0 0.0 0.00 0.00 0.00 89 1018.5
20260831001822 74 220 0.0 0.0 0.00 0.00 0.00 88 1018.4
20260831001322 74 221 0.0 0.0 0.00 0.00 0.00 88 1018.4
20260831000819 74 221 0.0 0.0 0.00 0.00 0.00 87 1018.4
20260831000318 74 221 0.0 0.0 0.00 0.00 0.00 87 1018.4
20260830235811 74 221 0.0 0.0 0.00 0.00 0.00 86 1018.3
20260830235348 74 221 0.0 0.0 0.00 0.00 0.00 85 1018.2
20260830234823 75 221 0.0 0.0 0.00 0.00 0.00 85 1018.2
20260830234318 75 221 0.0 0.0 0.00 0.00 0.00 84 1018.1
20260830233814 75 221 0.0 0.0 0.00 0.00 0.00 83 1018.0
20260830233314 75 221 0.0 0.0 0.00 0.00 0.00 83 1018.0
20260830232830 75 221 0.0 0.0 0.00 0.00 0.00 83 1018.1
20260830232326 75 221 0.0 0.0 0.00 0.00 0.00 82 1018.1
20260830231822 75 221 0.0 1.0 0.00 0.00 0.00 82 1018.0
20260830231317 76 221 0.0 1.0 0.00 0.00 0.00 82 1018.0
20260830230813 76 240 0.0 2.0 0.00 0.00 0.00 82 1018.1
20260830230310 76 167 0.0 2.0 0.00 0.00 0.00 82 1018.1
20260830225830 76 102 0.0 2.0 0.00 0.00 0.00 81 1018.2
20260830225327 76 207 0.0 1.0 0.00 0.00 0.00 81 1018.2
20260830224823 76 281 0.0 0.0 0.00 0.00 0.00 81 1018.2
20260830224318 76 19 0.0 0.0 0.00 0.00 0.00 81 1018.3
20260830223814 76 283 0.0 1.0 0.00 0.00 0.00 81 1018.2
20260830223311 76 270 0.0 0.0 0.00 0.00 0.00 81 1018.2
20260830222826 76 215 0.0 0.0 0.00 0.00 0.00 81 1018.2
20260830222327 77 215 0.0 1.0 0.00 0.00 0.00 80 1018.1
20260830221823 77 207 0.0 1.0 0.00 0.00 0.00 81 1018.2
20260830221320 77 220 0.0 1.0 0.00 0.00 0.00 80 1018.2
20260830220836 77 230 0.0 0.0 0.00 0.00 0.00 80 1018.2
20260830220311 77 230 0.0 0.0 0.00 0.00 0.00 80 1018.2
20260830215826 77 230 0.0 0.0 0.00 0.00 0.00 80 1018.2
20260830215344 77 246 0.0 2.0 0.00 0.00 0.00 80 1018.1
20260830214819 77 245 0.0 3.0 0.00 0.00 0.00 80 1018.1
20260830214318 77 159 0.0 4.0 0.00 0.00 0.00 80 1018.3
20260830213814 77 295 1.0 4.0 0.00 0.00 0.00 79 1018.3
20260830213311 77 30 0.0 3.0 0.00 0.00 0.00 79 1018.2
20260830212826 77 360 0.0 3.0 0.00 0.00 0.00 79 1018.2
20260830212322 77 307 1.0 3.0 0.00 0.00 0.00 79 1018.1
20260830211818 77 235 0.0 3.0 0.00 0.00 0.00 79 1018.0
20260830211314 77 125 1.0 3.0 0.00 0.00 0.00 79 1017.8
20260830210850 77 319 1.0 3.0 0.00 0.00 0.00 78 1018.0
20260830210329 78 303 1.0 4.0 0.00 0.00 0.00 78 1018.0
20260830205845 78 346 2.0 4.0 0.00 0.00 0.00 78 1018.0
20260830205320 78 284 0.0 6.0 0.00 0.00 0.00 78 1018.0
20260830204816 78 26 0.0 9.0 0.00 0.00 0.00 77 1018.1
20260830204332 78 297 2.0 9.0 0.00 0.00 0.00 78 1018.0
20260830203828 78 299 2.0 5.0 0.00 0.00 0.00 77 1018.3
20260830203324 78 80 1.0 6.0 0.00 0.00 0.00 77 1018.4
20260830202820 78 90 1.0 6.0 0.00 0.00 0.00 77 1018.3
20260830202321 78 49 1.0 9.0 0.00 0.00 0.00 78 1018.3
20260830201837 78 9 3.0 8.0 0.00 0.00 0.00 78 1018.5
20260830201311 78 355 1.0 4.0 0.00 0.00 0.00 78 1018.3
20260830200827 78 277 2.0 4.0 0.00 0.00 0.00 80 1018.5
20260830200324 77 355 1.0 8.0 0.00 0.00 0.00 80 1018.4
20260830195820 77 39 2.0 8.0 0.00 0.00 0.00 80 1018.6
20260830195316 77 76 1.0 6.0 0.00 0.00 0.00 80 1018.5
20260830194812 77 297 2.0 6.0 0.00 0.00 0.00 80 1018.6
20260830194311 76 333 2.0 6.0 0.00 0.00 0.00 80 1018.6
20260830193848 76 39 2.0 7.0 0.00 0.00 0.00 80 1018.8
20260830193323 77 250 1.0 7.0 0.00 0.00 0.00 80 1018.8
20260830192818 76 314 3.0 6.0 0.00 0.00 0.00 80 1018.9
20260830192314 77 319 2.0 5.0 0.00 0.00 0.00 80 1018.8
20260830191810 76 321 3.0 5.0 0.00 0.00 0.00 80 1018.9
20260830191326 77 315 1.0 9.0 0.00 0.00 0.00 80 1019.0
20260830190822 76 360 3.0 9.0 0.00 0.00 0.00 80 1019.2
20260830190322 76 35 2.0 8.0 0.00 0.00 0.00 80 1019.2
20260830185818 76 248 3.0 10.0 0.00 0.00 0.00 80 1019.4
20260830185314 76 348 4.0 10.0 0.00 0.00 0.00 79 1019.3
20260830184830 77 59 1.0 7.0 0.00 0.00 0.00 79 1019.4
20260830184326 76 232 1.0 8.0 0.00 0.00 0.00 80 1019.5
20260830183822 76 360 2.0 6.0 0.00 0.00 0.00 80 1019.7
20260830183319 76 11 1.0 6.0 0.00 0.00 0.00 80 1019.6
20260830182817 76 132 1.0 4.0 0.00 0.00 0.00 81 1019.6
20260830182314 75 253 1.0 7.0 0.00 0.00 0.00 81 1019.7
20260830181811 75 191 3.0 7.0 0.00 0.00 0.00 81 1019.7
20260830181326 74 304 1.0 6.0 0.00 0.00 0.00 82 1019.9
20260830180823 74 173 1.0 6.0 0.00 0.00 0.00 82 1020.0
20260830180319 74 40 3.0 8.0 0.00 0.00 0.00 81 1020.0
20260830175815 74 355 2.0 5.0 0.00 0.00 0.00 81 1020.2
20260830175315 74 9 1.0 7.0 0.00 0.00 0.00 81 1020.2
20260830174852 75 283 2.0 7.0 0.00 0.00 0.00 81 1020.3
20260830174325 75 139 2.0 4.0 0.00 0.00 0.00 80 1020.2
20260830173841 75 17 1.0 9.0 0.00 0.00 0.00 80 1020.3
20260830173317 75 284 1.0 9.0 0.00 0.00 0.00 80 1020.3
20260830172813 75 64 1.0 8.0 0.00 0.00 0.00 80 1020.3
20260830172330 75 355 2.0 8.0 0.00 0.00 0.00 79 1020.4
20260830171826 75 20 2.0 6.0 0.00 0.00 0.00 80 1020.4
20260830171325 74 317 1.0 4.0 0.00 0.00 0.00 80 1020.4
20260830170841 74 32 1.0 4.0 0.00 0.00 0.00 79 1020.4
20260830170316 74 194 1.0 7.0 0.00 0.00 0.00 79 1020.4
20260830165810 74 307 1.0 9.0 0.00 0.00 0.00 80 1020.4
20260830165327 74 319 0.0 2.0 0.00 0.00 0.00 80 1020.4
20260830164844 74 182 0.0 4.0 0.00 0.00 0.00 80 1020.4
20260830164318 73 244 1.0 4.0 0.00 0.00 0.00 80 1020.5
20260830163815 73 287 1.0 4.0 0.00 0.00 0.00 82 1020.5
20260830163316 72 327 2.0 4.0 0.00 0.00 0.00 82 1020.4
20260830162811 72 70 1.0 5.0 0.00 0.00 0.00 81 1020.5
20260830162328 72 5 1.0 5.0 0.00 0.00 0.00 81 1020.4
20260830161824 71 210 1.0 4.0 0.00 0.00 0.00 82 1020.5
20260830161339 71 190 1.0 3.0 0.00 0.00 0.00 83 1020.8
20260830160815 70 111 1.0 3.0 0.00 0.00 0.00 83 1021.0
20260830160311 70 88 1.0 3.0 0.00 0.00 0.00 82 1021.0
20260830155826 70 253 0.0 2.0 0.00 0.00 0.00 82 1021.3
20260830155326 71 208 0.0 2.0 0.00 0.00 0.00 80 1021.4
20260830154822 72 78 0.0 4.0 0.00 0.00 0.00 79 1021.3
20260830154317 72 338 1.0 6.0 0.00 0.00 0.00 77 1021.4
20260830153813 72 163 1.0 6.0 0.00 0.00 0.00 76 1021.3
20260830153330 72 157 0.0 6.0 0.00 0.00 0.00 75 1021.3
20260830152824 73 165 1.0 4.0 0.00 0.00 0.00 75 1021.4
20260830152321 73 286 1.0 3.0 0.00 0.00 0.00 74 1021.3
20260830151822 73 237 1.0 3.0 0.00 0.00 0.00 72 1021.4
20260830151316 73 123 1.0 2.0 0.00 0.00 0.00 73 1021.3
20260830150813 73 119 1.0 3.0 0.00 0.00 0.00 73 1021.4
20260830150330 73 311 1.0 3.0 0.00 0.00 0.00 73 1021.6
20260830145847 73 145 0.0 2.0 0.00 0.00 0.00 73 1021.7
20260830145322 72 242 0.0 2.0 0.00 0.00 0.00 73 1021.6
20260830144819 72 261 0.0 2.0 0.00 0.00 0.00 73 1021.8
20260830144314 71 104 0.0 2.0 0.00 0.00 0.00 73 1021.8
20260830143834 71 105 0.0 0.0 0.00 0.00 0.00 73 1021.8
20260830143330 72 105 0.0 3.0 0.00 0.00 0.00 72 1021.8
20260830142825 72 146 1.0 3.0 0.00 0.00 0.00 70 1021.8
20260830142323 72 142 1.0 3.0 0.00 0.00 0.00 70 1021.8
20260830141819 73 117 0.0 7.0 0.00 0.00 0.00 68 1021.8
20260830141334 74 164 2.0 7.0 0.00 0.00 0.00 66 1021.7
20260830140830 74 134 1.0 4.0 0.00 0.00 0.00 67 1021.6
20260830140326 73 181 0.0 3.0 0.00 0.00 0.00 69 1021.8
20260830135826 73 130 1.0 3.0 0.00 0.00 0.00 68 1021.7
20260830135343 72 78 1.0 3.0 0.00 0.00 0.00 69 1021.9
20260830134837 72 146 0.0 1.0 0.00 0.00 0.00 68 1021.8
20260830134312 72 120 0.0 2.0 0.00 0.00 0.00 68 1021.8
20260830133828 72 120 0.0 2.0 0.00 0.00 0.00 68 1021.9
20260830133325 72 82 0.0 2.0 0.00 0.00 0.00 67 1021.8
20260830132820 72 169 1.0 2.0 0.00 0.00 0.00 68 1021.8
20260830132316 71 165 0.0 1.0 0.00 0.00 0.00 70 1021.9
20260830131817 71 158 0.0 0.0 0.00 0.00 0.00 71 1022.0
20260830131313 71 165 0.0 0.0 0.00 0.00 0.00 72 1022.0
20260830130829 71 355 0.0 0.0 0.00 0.00 0.00 74 1022.0
20260830130325 70 355 0.0 0.0 0.00 0.00 0.00 74 1022.2
20260830125841 70 355 0.0 0.0 0.00 0.00 0.00 75 1022.4
20260830125315 69 355 0.0 0.0 0.00 0.00 0.00 76 1022.4
20260830124832 69 355 0.0 0.0 0.00 0.00 0.00 76 1022.4
20260830124325 68 355 0.0 0.0 0.00 0.00 0.00 77 1022.5
20260830123822 68 355 0.0 0.0 0.00 0.00 0.00 78 1022.6
20260830123342 67 355 0.0 0.0 0.00 0.00 0.00 80 1022.5
20260830122836 66 355 0.0 0.0 0.00 0.00 0.00 81 1022.5
20260830122311 66 355 0.0 0.0 0.00 0.00 0.00 83 1022.5
20260830121827 65 355 0.0 1.0 0.00 0.00 0.00 83 1022.5
20260830121321 64 355 0.0 1.0 0.00 0.00 0.00 85 1022.7
20260830120837 63 355 0.0 2.0 0.00 0.00 0.00 87 1022.6
20260830120312 63 355 1.0 2.0 0.00 0.00 0.00 87 1022.6
20260830115829 62 346 1.0 2.0 0.00 0.00 0.00 87 1022.6
20260830115326 62 343 1.0 2.0 0.00 0.00 0.00 87 1022.6
20260830114846 61 344 0.0 3.0 0.00 0.00 0.00 88 1022.5
20260830114322 61 344 1.0 3.0 0.00 0.00 0.00 88 1022.6
20260830113319 62 348 1.0 3.0 0.00 0.00 0.00 89 1022.6
20260830112815 61 346 1.0 3.0 0.00 0.00 0.00 89 1022.6
20260830112311 61 317 0.0 0.0 0.00 0.00 0.00 89 1022.6
20260830111827 60 317 0.0 0.0 0.00 0.00 0.00 90 1022.6
20260830111328 60 317 0.0 0.0 0.00 0.00 0.00 90 1022.6
20260830110825 60 317 0.0 0.0 0.00 0.00 0.00 90 1022.6
20260830110322 60 317 0.0 0.0 0.00 0.00 0.00 90 1022.6
20260830105816 60 317 0.0 0.0 0.00 0.00 0.00 90 1022.6
20260830105313 60 317 0.0 0.0 0.00 0.00 0.00 90 1022.5
20260830104830 60 317 0.0 0.0 0.00 0.00 0.00 90 1022.5
20260830104325 60 317 0.0 0.0 0.00 0.00 0.00 89 1022.5
20260830103825 60 317 0.0 0.0 0.00 0.00 0.00 90 1022.2
20260830103322 60 317 0.0 0.0 0.00 0.00 0.00 90 1022.2
20260830102816 60 317 0.0 0.0 0.00 0.00 0.00 90 1022.2
20260830102313 60 317 0.0 0.0 0.00 0.00 0.00 90 1022.3
20260830101829 60 317 0.0 0.0 0.00 0.00 0.00 90 1022.5
20260830101323 60 317 0.0 0.0 0.00 0.00 0.00 89 1022.5
20260830100820 60 317 0.0 0.0 0.00 0.00 0.00 90 1022.4
20260830100320 60 317 0.0 0.0 0.00 0.00 0.00 90 1022.3
20260830095816 60 317 0.0 0.0 0.00 0.00 0.00 90 1022.4
20260830095312 60 317 0.0 0.0 0.00 0.00 0.00 90 1022.5
20260830094829 60 317 0.0 0.0 0.00 0.00 0.00 90 1022.4
20260830094325 60 317 0.0 0.0 0.00 0.00 0.00 90 1022.4
20260830093821 60 317 0.0 0.0 0.00 0.00 0.00 90 1022.4
20260830093318 60 317 0.0 0.0 0.00 0.00 0.00 90 1022.5
20260830092817 60 317 0.0 0.0 0.00 0.00 0.00 90 1022.5
20260830092314 60 317 0.0 0.0 0.00 0.00 0.00 90 1022.4
20260830091810 60 317 0.0 0.0 0.00 0.00 0.00 90 1022.4
20260830091325 60 317 0.0 0.0 0.00 0.00 0.00 90 1022.3
20260830090822 60 317 0.0 1.0 0.00 0.00 0.00 90 1022.4
20260830090319 60 317 0.0 1.0 0.00 0.00 0.00 90 1022.5
20260830085813 60 317 0.0 0.0 0.00 0.00 0.00 90 1022.5
20260830085313 60 317 0.0 0.0 0.00 0.00 0.00 90 1022.4
20260830084810 59 317 0.0 0.0 0.00 0.00 0.00 90 1022.5
20260830084326 59 317 0.0 0.0 0.00 0.00 0.00 90 1022.4
20260830083822 59 317 0.0 0.0 0.00 0.00 0.00 90 1022.4
20260830083319 60 317 0.0 0.0 0.00 0.00 0.00 90 1022.6
20260830082814 60 317 0.0 0.0 0.00 0.00 0.00 90 1022.5
20260830082310 60 317 0.0 0.0 0.00 0.00 0.00 90 1022.5
20260830081826 60 317 0.0 1.0 0.00 0.00 0.00 90 1022.6
20260830081326 60 317 0.0 2.0 0.00 0.00 0.00 91 1022.6
20260830080822 60 317 0.0 2.0 0.00 0.00 0.00 91 1022.6
20260830080319 60 336 1.0 2.0 0.00 0.00 0.00 91 1022.7
20260830075814 60 336 0.0 2.0 0.00 0.00 0.00 91 1022.7
20260830075310 60 347 0.0 3.0 0.00 0.00 0.00 90 1022.6
20260830074827 60 347 1.0 3.0 0.00 0.00 0.00 91 1022.6
20260830074323 60 316 1.0 3.0 0.00 0.00 0.00 90 1022.7
20260830073822 60 325 1.0 2.0 0.00 0.00 0.00 90 1022.7
20260830073319 60 325 1.0 2.0 0.00 0.00 0.00 90 1022.7
20260830072815 60 325 0.0 0.0 0.00 0.00 0.00 90 1022.8
20260830072310 60 325 0.0 0.0 0.00 0.00 0.00 90 1022.8
20260830071827 60 325 0.0 2.0 0.00 0.00 0.00 90 1022.8
20260830071322 60 325 0.0 2.0 0.00 0.00 0.00 91 1022.8
20260830070817 60 325 0.0 2.0 0.00 0.00 0.00 91 1022.8
20260830070318 60 329 0.0 2.0 0.00 0.00 0.00 91 1022.7
20260830065813 60 329 0.0 2.0 0.00 0.00 0.00 91 1022.8
20260830065329 60 333 1.0 3.0 0.00 0.00 0.00 91 1022.7
20260830064824 60 321 1.0 3.0 0.00 0.00 0.00 91 1022.8
20260830064320 60 329 2.0 3.0 0.00 0.00 0.00 91 1022.8
20260830063816 60 340 0.0 2.0 0.00 0.00 0.00 91 1022.8
20260830063312 60 317 0.0 1.0 0.00 0.00 0.00 91 1022.8
20260830062811 60 309 0.0 1.0 0.00 0.00 0.00 91 1022.8
20260830062328 60 292 0.0 1.0 0.00 0.00 0.00 90 1022.8
20260830061823 60 325 0.0 1.0 0.00 0.00 0.00 90 1022.7
20260830061319 60 325 0.0 3.0 0.00 0.00 0.00 90 1022.8
20260830060816 60 325 2.0 3.0 0.00 0.00 0.00 90 1022.7
20260830060312 60 335 1.0 3.0 0.00 0.00 0.00 90 1022.8
20260830055827 60 348 2.0 3.0 0.00 0.00 0.00 90 1022.8
20260830055328 60 345 2.0 3.0 0.00 0.00 0.00 90 1022.8
20260830054845 61 333 2.0 3.0 0.00 0.00 0.00 89 1022.8
20260830054320 61 327 2.0 3.0 0.00 0.00 0.00 90 1022.8
20260830053816 60 329 0.0 2.0 0.00 0.00 0.00 89 1022.8
20260830053312 60 271 0.0 2.0 0.00 0.00 0.00 89 1022.8
20260830052828 60 274 0.0 0.0 0.00 0.00 0.00 89 1022.8
20260830052325 60 302 0.0 0.0 0.00 0.00 0.00 90 1022.8
20260830051820 60 302 0.0 0.0 0.00 0.00 0.00 90 1022.8
20260830051320 60 321 0.0 0.0 0.00 0.00 0.00 90 1022.7
20260830050817 60 321 0.0 0.0 0.00 0.00 0.00 90 1022.6
20260830050312 60 321 0.0 0.0 0.00 0.00 0.00 89 1022.6
20260830045828 60 321 0.0 0.0 0.00 0.00 0.00 89 1022.7
20260830045324 60 321 0.0 2.0 0.00 0.00 0.00 90 1022.7
20260830044821 61 321 0.0 2.0 0.00 0.00 0.00 90 1022.7
20260830044316 61 276 0.0 0.0 0.00 0.00 0.00 89 1022.7
20260830043817 61 276 0.0 3.0 0.00 0.00 0.00 89 1022.7
20260830043314 61 277 1.0 3.0 0.00 0.00 0.00 90 1022.6
20260830042827 61 331 1.0 3.0 0.00 0.00 0.00 90 1022.6
20260830042324 61 339 1.0 2.0 0.00 0.00 0.00 90 1022.7
20260830041821 61 330 0.0 2.0 0.00 0.00 0.00 89 1022.7
20260830041317 62 329 0.0 3.0 0.00 0.00 0.00 89 1022.7
20260830040813 62 340 1.0 2.0 0.00 0.00 0.00 89 1022.6
20260830040314 61 339 0.0 1.0 0.00 0.00 0.00 88 1022.6
20260830035828 61 339 0.0 1.0 0.00 0.00 0.00 88 1022.6
20260830035325 61 339 0.0 1.0 0.00 0.00 0.00 88 1022.5
20260830034822 61 339 0.0 2.0 0.00 0.00 0.00 88 1022.6
20260830034317 62 339 1.0 2.0 0.00 0.00 0.00 89 1022.7
20260830033813 62 339 0.0 1.0 0.00 0.00 0.00 89 1022.7
20260830033329 62 339 0.0 1.0 0.00 0.00 0.00 89 1022.7
20260830032828 62 339 0.0 1.0 0.00 0.00 0.00 88 1022.7
20260830032325 62 339 0.0 0.0 0.00 0.00 0.00 88 1022.7
20260830031820 62 339 0.0 1.0 0.00 0.00 0.00 89 1022.7
20260830031315 62 339 0.0 1.0 0.00 0.00 0.00 89 1022.7
20260830030811 62 339 0.0 1.0 0.00 0.00 0.00 89 1022.6
20260830030328 62 339 0.0 2.0 0.00 0.00 0.00 89 1022.6
20260830025824 62 339 0.0 2.0 0.00 0.00 0.00 88 1022.6
20260830025325 62 337 0.0 2.0 0.00 0.00 0.00 88 1022.5
20260830024821 62 349 0.0 2.0 0.00 0.00 0.00 88 1022.5
20260830024316 63 349 0.0 2.0 0.00 0.00 0.00 87 1022.5
20260830023812 63 344 0.0 1.0 0.00 0.00 0.00 87 1022.5
20260830023329 63 286 0.0 0.0 0.00 0.00 0.00 86 1022.7
20260830022823 63 286 0.0 0.0 0.00 0.00 0.00 85 1022.7
20260830022319 63 286 0.0 0.0 0.00 0.00 0.00 85 1022.6
20260830021819 63 286 0.0 0.0 0.00 0.00 0.00 85 1022.5
20260830021314 63 286 0.0 0.0 0.00 0.00 0.00 83 1022.5
20260830020810 63 286 0.0 0.0 0.00 0.00 0.00 84 1022.5
20260830020327 63 286 0.0 0.0 0.00 0.00 0.00 84 1022.5
20260830015823 63 286 0.0 0.0 0.00 0.00 0.00 84 1022.5
20260830015319 63 286 0.0 0.0 0.00 0.00 0.00 83 1022.5
20260830014815 63 286 0.0 0.0 0.00 0.00 0.00 82 1022.5